Weather History for Albany, NY

Change the Weather History Date:

Monday, February 11, 2013

  Actual Average Record
Temperature  
Mean Temperature 27 °F 25 °F  
Max Temperature 39 °F 34 °F 59 °F (1981)
Min Temperature 14 °F 17 °F -18 °F (1962)
Degree Days  
Heating Degree Days 38 40  
Month to date heating degree days 486 450  
Since 1 July heating degree days 3962 4301  
Cooling Degree Days 0 0  
Month to date cooling degree days 0 0  
Year to date cooling degree days 0 0  
Moisture  
Dew Point 27 °F    
Average Humidity 77    
Maximum Humidity 92    
Minimum Humidity 61    
Precipitation  
Precipitation 0.03 in 0.08 in 1.00 in (1981)
Month to date precipitation 0.63 0.85  
Year to date precipitation 2.09 3.44  
Snow  
Snow T in 0.50 in 9.60 in (1933)
Month to date snowfall 6.8 5.2  
Since 1 July snowfall 26.4 39.3  
Snow Depth 4.00 in    
Sea Level Pressure  
Sea Level Pressure 29.91 in    
Wind  
Wind Speed 11 mph (South)    
Max Wind Speed 28 mph    
Max Gust Speed 40 mph    
Visibility 10 miles    
Events Rain    
T = Trace of Precipitation, MM = Missing Value Source: NWS Daily Summary

Daily Weather History Graph

Daily Weather History Graph

Search for Another Location

Airport:

Trip Planner

Search our weather history database for the weather conditions in past years. The results will help you decide how hot, cold, wet, or windy it might be!

Date:

Astronomy

Feb. 11, 2013 Rise Set
Actual Time 6:57 AM EST 5:22 PM EST
Civil Twilight 6:28 AM EST 5:51 PM EST
Nautical Twilight 5:54 AM EST 6:24 PM EST
Astronomical Twilight 5:22 AM EST 6:57 PM EST
Moon 7:17 AM EST (2/11) 7:20 PM EST (2/11)
Length of Visible Light 11h 23m
Length of Day
10h 24m
Waxing Crescent, 3% of the Moon is Illuminated
Feb 11
Waxing Crescent
Feb 17
First Quarter
Feb 25
Full
Mar 4
Last Quarter
Mar 11
New

Hourly Weather History & Observations

Time (EST) Temp. Windchill Dew Point Humidity Pressure Visibility Wind Dir Wind Speed Gust Speed Precip Events Conditions
12:51 AM 15.1 °F - 6.1 °F 68% 30.25 in 10.0 mi Calm Calm - N/A   Overcast
1:51 AM 16.0 °F - 6.1 °F 65% 30.22 in 10.0 mi Calm Calm - N/A   Overcast
2:51 AM 17.1 °F - 9.0 °F 71% 30.20 in 10.0 mi Calm Calm - N/A   Overcast
3:51 AM 19.9 °F - 10.9 °F 68% 30.14 in 10.0 mi Calm Calm - N/A   Overcast
4:43 AM 30.2 °F 20.8 °F 15.8 °F 55% 30.12 in 10.0 mi South 11.5 mph 21.9 mph 0.00 in Rain Light Freezing Rain
4:51 AM 30.9 °F 21.2 °F 17.1 °F 57% 30.14 in 10.0 mi South 12.7 mph 18.4 mph 0.00 in Rain Light Freezing Rain
5:05 AM 30.2 °F 21.9 °F 17.6 °F 60% 30.11 in 10.0 mi SSE 9.2 mph - 0.00 in Rain Light Freezing Rain
5:12 AM 30.2 °F 19.8 °F 17.6 °F 60% 30.11 in 10.0 mi South 13.8 mph 21.9 mph 0.00 in   Overcast
5:51 AM 32.0 °F 21.6 °F 18.0 °F 56% 30.08 in 10.0 mi South 15.0 mph 24.2 mph 0.00 in   Overcast
6:51 AM 33.1 °F 21.5 °F 21.9 °F 64% 30.05 in 10.0 mi South 19.6 mph 26.5 mph N/A   Overcast
6:54 AM 33.8 °F 23.2 °F 23.0 °F 65% 30.04 in 10.0 mi South 17.3 mph 26.5 mph 0.00 in   Light Ice Pellets
7:39 AM 33.8 °F 23.9 °F 28.4 °F 81% 30.02 in 10.0 mi South 15.0 mph 25.3 mph 0.00 in Rain Light Ice Pellets
7:48 AM 33.8 °F 23.5 °F 28.4 °F 81% 30.02 in 10.0 mi South 16.1 mph 24.2 mph 0.01 in   Overcast
7:51 AM 33.1 °F 24.4 °F 28.0 °F 82% 30.03 in 10.0 mi South 11.5 mph 24.2 mph 0.01 in   Overcast
8:48 AM 32.0 °F 21.6 °F 28.4 °F 87% 29.99 in 10.0 mi South 15.0 mph 21.9 mph 0.00 in Rain Light Freezing Rain
8:51 AM 32.0 °F 23.0 °F 28.9 °F 88% 30.00 in 9.0 mi South 11.5 mph 21.9 mph 0.00 in Rain Light Freezing Rain
9:04 AM 32.0 °F 23.6 °F 30.2 °F 93% 29.97 in 10.0 mi South 10.4 mph - 0.00 in Rain Light Freezing Rain
9:19 AM 32.0 °F 22.1 °F 30.2 °F 93% 29.96 in 10.0 mi South 13.8 mph 21.9 mph 0.00 in   Overcast
9:51 AM 34.0 °F 23.0 °F 30.9 °F 89% 29.94 in 10.0 mi South 18.4 mph 26.5 mph 0.00 in Rain Light Rain
10:51 AM 35.1 °F 24.5 °F 32.0 °F 89% 29.88 in 10.0 mi South 18.4 mph 26.5 mph 0.00 in   Overcast
11:51 AM 36.0 °F 26.7 °F 33.1 °F 89% 29.86 in 10.0 mi South 15.0 mph 23.0 mph N/A   Overcast
12:51 PM 37.0 °F 28.9 °F 33.1 °F 86% 29.81 in 10.0 mi SSE 12.7 mph 23.0 mph N/A   Overcast
1:51 PM 37.9 °F 30.5 °F 34.0 °F 86% 29.76 in 10.0 mi South 11.5 mph 19.6 mph N/A   Overcast
2:51 PM 37.9 °F 30.0 °F 35.1 °F 89% 29.73 in 10.0 mi SSE 12.7 mph 19.6 mph N/A   Overcast
3:51 PM 37.9 °F 28.2 °F 35.1 °F 89% 29.72 in 10.0 mi South 18.4 mph 24.2 mph N/A   Mostly Cloudy
4:07 PM 39.2 °F 31.2 °F 35.6 °F 87% 29.69 in 10.0 mi South 13.8 mph 24.2 mph N/A   Mostly Cloudy
4:37 PM 39.2 °F 32.5 °F 35.6 °F 87% 29.68 in 10.0 mi South 10.4 mph - N/A   Mostly Cloudy
4:51 PM 39.0 °F 31.4 °F 36.0 °F 89% 29.68 in 10.0 mi South 12.7 mph - N/A   Mostly Cloudy
5:51 PM 37.9 °F 29.2 °F 36.0 °F 93% 29.66 in 8.0 mi South 15.0 mph 20.7 mph N/A   Overcast
6:51 PM 37.9 °F 30.0 °F 36.0 °F 93% 29.67 in 8.0 mi South 12.7 mph - N/A   Overcast
7:39 PM 37.4 °F 32.1 °F 35.6 °F 93% 29.66 in 7.0 mi South 6.9 mph - N/A   Overcast
7:51 PM 37.9 °F 32.7 °F 36.0 °F 93% 29.68 in 5.0 mi South 6.9 mph - N/A   Overcast
8:51 PM 37.9 °F 31.5 °F 35.1 °F 89% 29.72 in 6.0 mi WNW 9.2 mph 16.1 mph 0.01 in Rain Light Rain
9:10 PM 37.4 °F 29.3 °F 33.8 °F 87% 29.72 in 10.0 mi NW 12.7 mph - 0.00 in   Overcast
9:51 PM 37.0 °F 26.7 °F 32.0 °F 82% 29.72 in 10.0 mi WNW 19.6 mph 24.2 mph 0.00 in   Overcast
10:51 PM 36.0 °F 29.0 °F 30.9 °F 82% 29.70 in 10.0 mi West 9.2 mph - 0.00 in   Overcast
11:51 PM 35.1 °F - 30.9 °F 85% 29.71 in 10.0 mi Calm Calm - N/A   Overcast